Los Angeles, CA

3:03 AM PST on November 21, 2017 (GMT -0800)
Los Angeles International

Weather History for KLAX - November, 2013

Change the Weather History Date:

Tuesday, November 26, 2013

  Actual Average Record
Temperature  
Mean Temperature 64 °F 59 °F  
Max Temperature 77 °F 67 °F 87 °F (1956)
Min Temperature 51 °F 51 °F 42 °F (1984)
Degree Days  
Heating Degree Days 1 6  
Month to date heating degree days 49 111  
Since 1 July heating degree days 89 155  
Cooling Degree Days 0 0  
Month to date cooling degree days 39 18  
Year to date cooling degree days 701 549  
Growing Degree Days 14 (Base 50)    
Moisture  
Dew Point 45 °F    
Average Humidity 48    
Maximum Humidity 77    
Minimum Humidity 19    
Precipitation  
Precipitation 0.00 in 0.05 in 0.79 in (1997)
Month to date precipitation 0.38 0.93  
Year to date precipitation 3.04 10.59  
Since 1 July precipitation 0.43  
Sea Level Pressure  
Sea Level Pressure 30.11 in    
Wind  
Wind Speed 5 mph (NNE)    
Max Wind Speed 17 mph    
Max Gust Speed 18 mph    
Visibility 10 miles    
Events      
T = Trace of Precipitation, MM = Missing Value Source: NWS Daily Summary

Daily Weather History Graph

Daily Weather History Graph

Search for Another Location

Airport or City:

Trip Planner

Search our weather history database for the weather conditions in past years. The results will help you decide how hot, cold, wet, or windy it might be!

Date:

Astronomy

Nov. 26, 2013 Rise Set
Actual Time 6:36 AM PST 4:45 PM PST
Civil Twilight 6:09 AM PST 5:12 PM PST
Nautical Twilight 5:38 AM PST 5:43 PM PST
Astronomical Twilight 5:08 AM PST 6:13 PM PST
Moon 12:02 AM PST (11/26) 12:38 PM PST (11/26)
Length of Visible Light 11h 03m
Length of Day
10h 08m
Last Quarter, 40% of the Moon is Illuminated
Nov 26
Last Quarter
Dec 2
New
Dec 9
First Quarter
Dec 17
Full
Dec 25
Last Quarter

Hourly Weather History & Observations

Time (PST) Temp. Dew Point Humidity Pressure Visibility Wind Dir Wind Speed Gust Speed Precip Events Conditions
12:53 AM 55.9 °F 46.9 °F 72% 30.18 in 10.0 mi NE 3.5 mph - N/A   Partly Cloudy
1:53 AM 55.0 °F 46.0 °F 72% 30.19 in 10.0 mi Calm Calm - N/A   Partly Cloudy
2:53 AM 54.0 °F 45.0 °F 72% 30.18 in 10.0 mi ESE 3.5 mph - N/A   Partly Cloudy
3:53 AM 53.1 °F 45.0 °F 74% 30.18 in 10.0 mi Calm Calm - N/A   Mostly Cloudy
4:53 AM 52.0 °F 44.1 °F 74% 30.17 in 10.0 mi Variable 3.5 mph - N/A   Mostly Cloudy
5:53 AM 52.0 °F 42.1 °F 69% 30.17 in 10.0 mi East 3.5 mph - N/A   Scattered Clouds
6:53 AM 53.1 °F 41.0 °F 64% 30.18 in 10.0 mi East 6.9 mph - N/A   Mostly Cloudy
7:53 AM 57.0 °F 41.0 °F 55% 30.18 in 10.0 mi ENE 4.6 mph - N/A   Mostly Cloudy
8:53 AM 63.0 °F 39.9 °F 43% 30.18 in 10.0 mi East 4.6 mph - N/A   Mostly Cloudy
9:53 AM 70.0 °F 36.0 °F 29% 30.17 in 10.0 mi NE 5.8 mph - N/A   Mostly Cloudy
10:53 AM 72.0 °F 36.0 °F 27% 30.15 in 10.0 mi ENE 5.8 mph - N/A   Mostly Cloudy
11:53 AM 75.0 °F 30.9 °F 20% 30.11 in 10.0 mi Calm Calm - N/A   Mostly Cloudy
12:50 PM 66.2 °F 50.0 °F 56% 30.10 in 10.0 mi West 12.7 mph - N/A   Mostly Cloudy
12:53 PM 66.9 °F 51.1 °F 57% 30.10 in 10.0 mi West 13.8 mph - N/A   Mostly Cloudy
1:53 PM 66.9 °F 48.9 °F 52% 30.08 in 10.0 mi West 11.5 mph - N/A   Mostly Cloudy
2:53 PM 66.9 °F 46.9 °F 49% 30.06 in 10.0 mi West 9.2 mph - N/A   Mostly Cloudy
3:53 PM 64.0 °F 48.9 °F 58% 30.05 in 10.0 mi West 8.1 mph - N/A   Scattered Clouds
4:53 PM 62.1 °F 54.0 °F 75% 30.05 in 10.0 mi West 8.1 mph - N/A   Scattered Clouds
5:53 PM 62.1 °F 54.0 °F 75% 30.06 in 10.0 mi West 6.9 mph - N/A   Scattered Clouds
6:53 PM 63.0 °F 51.1 °F 65% 30.06 in 10.0 mi Calm Calm - N/A   Mostly Cloudy
7:53 PM 63.0 °F 48.9 °F 60% 30.06 in 10.0 mi Calm Calm - N/A   Mostly Cloudy
8:53 PM 63.0 °F 46.9 °F 56% 30.06 in 10.0 mi Calm Calm - N/A   Overcast
9:53 PM 64.0 °F 46.0 °F 52% 30.06 in 10.0 mi Calm Calm - N/A   Mostly Cloudy
10:53 PM 64.9 °F 41.0 °F 42% 30.05 in 10.0 mi Variable 5.8 mph - N/A   Mostly Cloudy
11:53 PM 64.9 °F 37.0 °F 36% 30.04 in 10.0 mi NE 5.8 mph - N/A   Mostly Cloudy